Location: Bukov�
(49.6150°N, 14.9491°E)
Time: 14:08:57
(UTC+00:00)

Daily predictions for brighter satellites

Satellite Brightness Start Highest point End
(mag) Time Altitude Azimuth Time Altitude Azimuth Time Altitude Azimuth
Cosmos 1386 Rocket 4.5 19:01:46 10° N 19:07:50 83° E 19:13:57 10° S
Cosmos 1503 Rocket 4.1 19:04:41 10° S 19:09:42 54° ESE 19:14:47 10° NNE
Cosmos 2221 4.4 19:08:25 10° SW 19:12:24 35° WNW 19:16:25 10° N
Cosmos 1812 4.4 19:12:55 10° SE 19:15:24 17° E 19:17:55 10° NE
Cosmos 1844 3.7 19:10:47 10° SSW 19:16:30 85° ESE 19:22:13 10° NNE
SOZ 4.3 19:15:10 10° WSW 19:18:14 66° SSE 19:20:26 10° ENE
Ariane Rocket 3.3 19:13:26 10° S 19:18:27 71° WSW 19:23:32 10° NNW
ARIANE 5 R/B 3.8 19:15:17 10° ESE 19:18:54 27° ENE 19:22:33 10° N
Cosmos 1833 Rocket 3.3 19:14:21 10° NNW 19:19:49 46° NE 19:25:15 10° SE
Cosmos 1745 Rocket 4.2 19:15:41 10° NNW 19:21:54 78° W 19:28:01 10° S
Resurs 1-3 4.0 19:18:21 10° S 19:22:43 67° WSW 19:27:07 10° NNW
Cosmos 1666 4.4 19:20:07 10° NNE 19:22:50 19° ENE 19:25:32 10° ESE
Cosmos 1709 Rocket 4.0 19:18:13 10° N 19:24:20 69° ENE 19:30:24 10° SSE
NOSS 3-4 (A) 4.4 19:22:26 10° NW 19:29:00 51° NE 19:36:20 10° ESE
NOSS 3-4 (C) 4.4 19:22:32 10° NW 19:29:06 51° NE 19:36:25 10° ESE
Cosmos 1666 Rocket 3.5 19:25:26 10° N 19:29:52 81° E 19:34:14 10° SSE
BREEZE-M DEB (TANK) 4.3 19:26:05 10° W 19:30:16 49° SSW 19:38:32 10° ESE
USA 307 3.2 19:30:54 10° WNW 19:35:10 68° NNE 19:39:27 10° ESE
Cosmos 1437 3.2 19:33:32 10° SSE 19:36:07 32° E 19:38:43 10° NNE
CZ-2C R/B 4.0 19:32:33 10° NNE 19:36:52 45° E 19:41:14 10° S
NOSS 3-3 (A) 4.0 19:34:06 10° SSW 19:39:42 56° ESE 19:46:07 10° NE
NOSS 3-3 (C) 4.0 19:34:13 10° SSW 19:39:49 56° ESE 19:46:14 10° NE
Intercosmos 24 4.2 19:38:26 10° SSW 19:42:01 60° WNW 19:45:40 10° N
ATLAS 2AS CENTAUR R/B 3.7 19:35:09 10° NW 19:42:19 43° NNE 19:48:59 10° E
Cosmos 1354 Rocket 4.0 19:37:35 10° SSW 19:42:49 85° ESE 19:48:06 10° NNE
Sich 1 4.1 19:39:48 10° NNW 19:43:57 45° W 19:48:06 10° SSW
S3M 4.4 19:38:21 10° SSW 19:44:41 68° WNW 19:51:01 10° N
USA 245 2.6 19:43:37 19° SE 19:44:54 38° ENE 19:47:03 10° N
SJ 16-02 2.6 19:42:35 13° SSE 19:45:34 24° E 19:49:08 10° NE
OBJECT-B 3.7 19:45:13 10° SW 19:47:11 15° W 19:49:11 10° NW
SPOT 1/Viking Rocket 3.6 19:42:56 11° SSE 19:48:01 73° ENE 19:53:13 10° N
Meteor 1-26 Rocket 4.2 19:42:50 10° S 19:48:31 82° E 19:54:02 10° NNE
USA 308 3.0 19:44:30 10° WNW 19:48:48 77° NNE 19:52:37 13° ESE
Cosmos 2315 Rocket 4.0 19:43:59 10° S 19:50:21 77° E 19:56:45 10° NNE
USA 215 4.3 19:46:28 10° ENE 19:52:40 47° N 19:58:51 10° WNW
Cosmos 1500 3.1 19:49:16 10° N 19:53:02 73° E 19:56:07 14° SSE
Iridium 4 Rocket 4.4 19:51:14 13° SSE 19:55:56 42° E 20:01:28 10° NNE
Terra 2.8 19:54:08 15° ESE 19:57:30 33° ENE 20:01:45 10° N
BREEZE M DEB (TANK) 1.8 19:53:06 10° W 19:58:08 77° SSW 19:59:41 19° ESE
Meteor 1-14 Rocket 4.3 19:52:59 10° NNW 19:58:55 89° ENE 20:04:21 12° S
Cosmos 2082 Rocket 2.7 19:54:12 10° NNW 19:59:39 49° NE 20:03:59 16° SE
SPOT 3 Rocket 4.1 19:57:39 10° S 20:02:42 56° W 20:07:47 10° NNW
Cosmos 1151 Rocket 3.2 19:58:36 10° SSW 20:02:57 75° WNW 20:07:22 10° N
SPOT 5 3.4 19:59:20 16° SE 20:03:12 51° ENE 20:08:21 10° N
Cosmos 158 Rocket 4.4 19:58:54 10° NNW 20:03:37 47° ENE 20:07:03 18° SE
X-37B 2.5 20:01:30 10° WSW 20:03:42 17° SSW 20:04:43 15° S
CREW DRAGON DEMO-1 DEB 2.3 20:01:23 10° WNW 20:04:02 72° SSW 20:05:17 27° ESE
COSMOS 2406 3.2 20:00:25 10° NNW 20:06:07 89° WSW 20:10:34 17° SSE
ERBS 4.4 20:03:37 10° NW 20:06:22 24° N 20:09:08 10° ENE
Resurs 01 Rocket 2.8 20:03:14 10° S 20:07:26 41° W 20:11:40 10° NNW
Cosmos 2084 3.3 20:03:50 10° SW 20:07:59 80° SE 20:12:16 10° NE
Cosmos 2228 Rocket 4.1 20:08:07 19° SE 20:10:17 29° E 20:14:07 10° NNE
Cosmos 1538 Rocket 4.0 20:09:28 10° NNW 20:14:54 89° ENE 20:18:46 19° SSE
Meteor 2-6 Rocket 4.2 20:12:09 11° S 20:17:14 65° E 20:22:45 10° NNE
Cosmos 1271 Rocket 3.2 20:19:16 23° SSE 20:21:25 46° E 20:25:17 10° NNE
Cosmos 2278 Rocket 2.1 20:20:24 10° SSW 20:26:01 70° ESE 20:31:40 10° NNE
Spot 2 Rocket 3.6 20:22:06 16° S 20:26:05 72° WSW 20:31:09 10° NNW
BREEZE-M DEB (TANK) 0.9 20:25:27 10° W 20:27:30 70° S 20:27:56 48° SE
Cosmos 1782 4.2 20:24:40 10° SW 20:28:25 38° WNW 20:32:10 10° N
USA 305 2.9 20:24:57 10° WNW 20:29:12 66° SSW 20:31:23 27° SE
Cosmos 1680 Rocket 4.1 20:26:13 10° NNW 20:31:23 47° ENE 20:34:33 22° SE
Cosmos 1943 Rocket 3.7 20:32:27 17° ESE 20:33:18 17° E 20:36:49 10° ENE
Cosmos 1515 Rocket 3.6 20:29:37 12° SSW 20:33:38 79° W 20:38:04 10° N
ERS-1 Rocket 2.9 20:30:20 22° SSE 20:33:41 90° WSW 20:38:45 10° NNW
Gbstr 26 Del rocket 4.4 20:26:22 10° W 20:34:10 77° N 20:40:43 10° E
Cosmos 1869 Rocket 3.7 20:32:38 10° N 20:36:55 55° ENE 20:38:55 29° SE
CZ-4C R/B 3.4 20:30:53 10° NW 20:37:55 56° WSW 20:43:47 20° SSE
Meteor 1-11 Rocket 3.8 20:38:11 10° N 20:44:12 83° ENE 20:47:53 24° SSE
ATLAS 5 CENTAUR R/B 4.2 20:42:40 10° WNW 20:46:50 20° WSW 20:51:26 10° SSW
USA 306 3.2 20:44:20 10° WNW 20:48:29 51° SW 20:49:58 34° SSE
Cosmos 1818 4.4 20:44:32 10° NNW 20:49:50 45° NE 20:53:35 18° ESE
Cosmos 1812 3.7 20:47:18 11° SSW 20:50:49 44° WNW 20:54:34 10° N
Cosmos 1340 Rocket 3.3 20:50:09 10° N 20:54:09 49° ENE 20:55:28 34° SE
ARIANE 5 R/B 3.7 20:52:22 17° SSW 20:55:14 38° W 20:59:18 10° NNW
Cosmos 1707 Rocket 4.3 20:55:52 31° ESE 20:56:58 36° E 21:01:01 10° NNE
Cosmos 1666 3.8 20:55:04 10° NNW 20:58:33 38° W 21:00:28 22° SSW
Meteor 2-12 Rocket 4.5 20:55:37 10° NNW 21:01:42 80° W 21:05:22 25° S
Cosmos 1833 Rocket 3.8 20:58:33 10° NW 21:03:38 35° WSW 21:07:04 18° SSW
Cosmos 2154 Rocket 4.0 20:59:36 10° N 21:05:58 83° W 21:09:42 26° S
SL-24 DEB 4.2 21:05:35 32° S 21:07:43 82° W 21:12:21 10° N
BREEZE-M R/B 1.8 21:05:18 10° W 21:07:43 86° N 21:07:49 81° ENE
Cosmos 923 Rocket 4.1 21:02:28 10° NNW 21:07:44 75° WSW 21:10:12 32° S
Cosmos 1898 Rocket 3.8 21:07:15 33° SSE 21:09:11 48° ESE 21:14:19 10° NNE
Cosmos 1536 2.8 21:05:09 10° NNW 21:09:12 78° W 21:10:33 41° S
Cosmos 1743 2.8 21:09:48 10° N 21:13:39 64° E 21:14:28 48° SE
USA 307 3.6 21:11:03 10° WNW 21:15:00 37° SW 21:15:37 35° SSW
H-2A R/B 3.6 21:12:05 10° N 21:16:18 75° WNW 21:18:18 30° SSW
Cosmos 962 Rocket 4.4 21:13:49 10° N 21:19:58 78° E 21:22:54 33° SSE
NOSS 3-4 (A) 4.2 21:13:21 10° NW 21:20:07 55° WSW 21:24:06 28° S
NOSS 3-4 (C) 4.2 21:13:27 10° NW 21:20:14 55° WSW 21:24:12 28° S
Cosmos 990 Rocket 3.9 21:20:01 31° S 21:22:34 74° ESE 21:27:50 10° NNE
SJ 16-02 2.4 21:19:40 10° SW 21:23:54 43° WNW 21:28:10 10° N
Cosmos 1975 3.9 21:20:26 10° N 21:23:59 30° ENE 21:24:44 28° E
Nadezhda 1 Rocket 4.1 21:19:51 21° SSW 21:24:16 75° W 21:30:31 10° N
Cosmos 2297 3.8 21:22:46 34° S 21:24:57 54° ESE 21:30:30 10° NE
RESURS DK-1 4.5 21:22:01 10° N 21:25:14 21° NE 21:27:39 13° E
Cosmos 1733 Rocket 3.1 21:22:27 10° N 21:26:46 61° ENE 21:27:49 46° SE
USA 308 3.9 21:24:45 10° WNW 21:28:32 30° SW 21:28:43 30° SW
Cosmos 1461 4.3 21:31:04 26° ESE 21:31:04 26° ESE 21:34:21 10° ENE
ATLAS 2AS CENTAUR R/B 2.8 21:26:26 10° NW 21:33:48 70° SW 21:37:04 34° SSE
USA 215 3.8 21:28:45 10° E 21:35:07 57° NNE 21:41:30 10° WNW
Terra 2.9 21:33:01 24° SW 21:35:12 36° W 21:39:37 10° NNW
Cosmos 1544 3.6 21:32:57 10° NNW 21:36:27 49° W 21:37:03 44° SW
ERBS 2.6 21:39:41 10° NW 21:42:59 59° NNE 21:43:15 56° NE
Cosmos 2082 Rocket 3.3 21:38:37 10° NW 21:43:34 33° WSW 21:45:50 24° SW
Cosmos 2112 Rocket 4.4 21:41:08 10° NNW 21:46:22 55° WSW 21:48:11 37° SSW
Cosmos 2181 Rocket 4.0 21:44:37 37° SSE 21:47:03 66° E 21:53:09 10° NNE
Cosmos 44 3.7 21:45:12 10° NW 21:50:33 59° WSW 21:51:59 44° S
Cosmos 967 Rocket 4.4 21:49:31 29° SSW 21:52:50 73° ESE 21:59:07 10° NE
Cosmos 2366 rocket 3.9 21:47:15 10° N 21:53:27 79° E 21:55:56 39° SSE
Spot 4 3.8 21:55:19 49° SSE 21:56:39 88° ENE 22:01:33 10° NNW
Cosmos 2084 Rocket 3.4 21:54:30 10° NW 21:58:45 66° SW 21:59:14 60° SSW
Cosmos 2341 Rocket 4.3 21:54:57 10° NNW 22:01:17 63° W 22:04:08 34° SSW
BREEZE-M DEB (TANK) 3.2 21:57:34 10° W 22:02:43 53° N 22:03:26 38° NE
Cosmos 1515 3.9 22:04:29 53° WSW 22:04:59 59° WNW 22:08:44 10° N
Cosmos 2278 Rocket 4.2 22:05:52 10° WSW 22:10:38 27° NW 22:15:25 10° NNE
Cosmos 489 Rocket 4.5 22:04:47 10° NNW 22:11:02 75° WSW 22:13:17 42° S
Cosmos 1862 Rocket 3.5 22:10:39 56° SW 22:11:29 75° W 22:15:49 10° N
Cosmos 1937 Rocket 3.5 22:09:32 37° SW 22:11:35 75° WNW 22:16:48 10° NNE
Cosmos 1703 Rocket 4.1 22:11:43 41° ESE 22:12:03 41° E 22:16:13 10° NNE
Cosmos 1782 Rocket 4.3 22:09:06 10° N 22:13:21 41° ENE 22:14:13 37° ESE
Cosmos 2218 Rocket 4.1 22:09:33 10° NNW 22:15:49 73° W 22:18:16 39° S
Cosmos 1943 Rocket 2.1 22:13:55 37° SSW 22:16:18 86° WNW 22:21:56 10° NNE
Cosmos 2369 Rocket 2.3 22:17:10 46° SSE 22:18:26 57° ESE 22:23:58 10° NE
Meteor 1-19 Rocket 4.1 22:19:24 41° SSW 22:21:17 75° WNW 22:26:43 10° N
Gbstr 26 Del rocket 4.0 22:14:22 10° WNW 22:21:34 65° SSW 22:23:47 40° SE
Cosmos 1238 Rocket 4.3 22:17:15 10° NNW 22:23:13 49° W 22:25:13 34° SW
Cosmos 1048 Rocket 4.2 22:18:40 10° NNW 22:24:00 68° ENE 22:25:40 43° SE
COBE Rocket 4.0 22:24:30 50° SSE 22:25:49 77° ENE 22:31:00 10° N
Gblst 52 Del rocket 4.4 22:19:57 10° WNW 22:26:49 72° SSW 22:29:37 34° SE
Cosmos 1607 4.4 22:26:50 40° SSE 22:28:15 46° ESE 22:34:25 10° NE
Okean 1 4.3 22:29:36 34° WSW 22:30:26 38° WNW 22:34:12 10° N
Okean 1-7 3.0 22:31:00 60° ESE 22:31:16 62° E 22:35:30 10° NNE
Thor Agena Rocket 4.0 22:27:07 10° NNE 22:32:10 45° E 22:33:11 41° SE
Cosmos 1818 4.1 22:28:16 10° NW 22:33:25 42° WSW 22:34:12 40° SW
Cosmos 2298 Rocket 4.3 22:35:33 46° SE 22:36:26 52° ESE 22:41:34 10° NNE
Cosmos 1656 Rocket 3.9 22:35:34 45° SE 22:36:29 51° ESE 22:41:50 10° NE
Nadezhda 3 Rocket 4.2 22:35:11 41° SSE 22:37:14 60° E 22:43:20 10° NNE
DNEPR-1 R/B 4.2 22:34:46 25° SW 22:38:02 70° NW 22:42:53 10° NE
ALOS 2 2.7 22:41:06 55° SW 22:41:34 59° W 22:45:56 10° NNW
Cosmos 2263 4.2 22:43:18 48° S 22:44:47 67° ESE 22:50:33 10° NNE
Cosmos 1356 Rocket 3.6 22:42:48 10° N 22:47:03 62° ENE 22:47:36 56° ESE
Meteor 2-4 Rocket 3.8 22:47:04 44° SSW 22:48:59 76° WNW 22:54:38 10° N
Meteor 1-13 Rocket 4.3 22:51:57 47° SSE 22:53:22 64° E 22:58:51 10° NNE
SL-27 R/B 2.8 22:51:04 10° NNW 22:53:51 58° N 22:53:51 58° N
BREEZE-M DEB (TANK) 4.0 22:44:56 10° WNW 22:57:39 53° SW 22:58:40 47° S
COSMOS 2455 4.4 22:52:44 10° NNW 22:58:10 33° NE 23:03:32 10° E
Cosmos 1975 4.3 22:57:01 10° NNW 23:00:20 25° W 23:00:28 25° W
PSLV R/B 4.1 22:56:13 10° NNE 23:00:25 44° E 23:00:45 43° ESE
Resurs 1-4 Rocket 4.4 22:59:40 10° ENE 23:01:11 11° E 23:02:43 10° ESE
Sich 1 Rocket 3.8 22:58:40 10° N 23:03:13 65° ENE 23:04:02 54° SE
RESURS DK-1 2.5 22:59:31 10° NW 23:03:31 61° WSW 23:03:31 61° WSW
Cosmos 2150 Rocket 3.9 23:04:29 53° S 23:05:47 82° ESE 23:11:07 10° NNE
Cosmos 2297 Rocket 4.2 23:02:32 10° NNW 23:07:09 25° NE 23:11:45 10° E
SeaSat 1 2.7 23:03:00 10° NE 23:07:51 52° ESE 23:08:32 48° SE
Cosmos 1833 4.2 23:02:12 10° NNW 23:07:55 67° WSW 23:09:23 48° S
NOSS 2-1 (E) 4.5 23:04:13 10° NW 23:08:54 64° NE 23:14:21 15° SE
Cosmos 1461 3.7 23:07:22 32° WSW 23:09:18 54° NW 23:13:49 10° NNE
Cosmos 2242 Rocket 4.1 23:09:01 44° WSW 23:09:48 50° WNW 23:14:11 10° N
Meteor 1-12 Rocket 4.3 23:05:08 10° NNW 23:11:01 74° W 23:12:43 47° S
Cosmos 2239 Rocket 4.5 23:05:04 10° NNW 23:11:23 76° W 23:13:34 43° S
Cosmos 1400 Rocket 4.4 23:12:28 10° N 23:16:08 30° ENE 23:17:25 25° ESE
ISS -2.7 23:18:16 40° ENE 23:18:16 40° ENE 23:20:34 10° ENE
USA 215 3.1 23:13:57 25° SE 23:18:04 73° SW 23:24:37 10° WNW
Cosmos 494 Rocket 4.0 23:14:07 10° NNW 23:19:14 60° WSW 23:20:07 52° SSW
Cosmos 1300 Rocket 3.4 23:16:39 10° N 23:21:06 85° E 23:21:41 67° SSE
Okean 2 Rocket 3.1 23:18:48 10° N 23:23:13 72° E 23:23:56 58° SE
ATLAS 2AS CENTAUR R/B 4.4 23:19:18 10° WNW 23:23:22 16° WSW 23:24:29 16° WSW
Cosmos 2151 Rocket 4.0 23:19:29 10° N 23:23:59 58° ENE 23:25:02 45° SE
Cosmos 1867 3.6 23:25:56 40° SW 23:27:56 79° NW 23:33:28 10° NE
Cosmos 1125 Rocket 3.4 23:26:49 50° SSW 23:28:14 83° WNW 23:33:30 10° NNE
Cosmos 1842 4.4 23:29:12 31° ESE 23:29:33 31° E 23:33:00 10° NNE
Cosmos 44 Rocket 3.3 23:24:32 10° NW 23:29:48 83° SW 23:31:23 46° SSE
Cosmos 1378 3.8 23:34:53 43° WNW 23:34:57 43° WNW 23:38:32 10° N
ATLAS CENTAUR R/B 1.0 23:38:30 80° WNW 23:38:32 80° NW 23:42:23 10° NE
Cosmos 1934 Rocket 4.0 23:33:58 10° NNW 23:40:05 68° W 23:42:10 42° SSW
Cosmos 2344 4.3 23:31:00 10° NW 23:40:10 70° SW 23:51:08 15° SSE
USA 281 3.5 23:36:59 17° SE 23:42:07 66° ENE 23:48:37 10° NNW
YAOGAN 11 4.1 23:41:08 51° SE 23:42:07 73° ENE 23:46:25 10° N
Cosmos 1726 3.6 23:39:04 10° N 23:42:23 30° ENE 23:43:27 25° ESE
Meteor 1-22 Rocket 4.4 23:36:28 10° N 23:42:27 76° ENE 23:45:13 34° SSE
USA 81 4.0 23:43:37 10° N 23:48:57 88° W 23:50:37 46° S
Okean 3 4.3 23:50:46 34° W 23:51:31 37° WNW 23:55:29 10° N
